EW7164 Weather Reports


time (UTC)temp
C
wind
direction
speed
KPH
gust
KPH
rain 1hr
cm
rain 24hr
cm
rain mn
cm
humidity
%
barometer
mb
20260902060228 16 135 1.6 3.2 0.00 0.00 0.00 68 1023.3
20260902055226 16 135 3.2 4.8 0.00 0.00 0.00 68 1023.4
20260902054227 16 90 0.0 1.6 0.00 0.00 0.00 66 1023.2
20260902053325 16 135 3.2 4.8 0.00 0.00 0.00 66 1023.0
20260902051426 16 135 4.8 6.4 0.00 0.00 0.00 65 1023.1
20260902050445 16 136 4.8 4.8 0.00 0.00 0.00 65 1022.9
20260902045427 16 135 4.8 6.4 0.00 0.00 0.00 65 1022.9
20260902044427 15 157 3.2 3.2 0.00 0.00 0.00 65 1022.7
20260902043426 15 135 4.8 8.0 0.00 0.00 0.00 68 1022.5
20260902042425 14 135 4.8 6.4 0.00 0.00 0.00 74 1022.7
20260902041427 13 180 4.8 4.8 0.00 0.00 0.00 83 1022.7
20260902040427 13 180 3.2 3.2 0.00 0.00 0.00 83 1022.6
20260902035435 14 90 0.0 1.6 0.00 0.00 0.00 79 1022.6
20260902034434 15 90 6.4 8.0 0.00 0.00 0.00 74 1022.5
20260902032433 15 225 1.6 3.2 0.00 0.00 0.00 73 1022.0
20260902031433 14 225 0.0 0.0 0.00 0.00 0.00 74 1022.0
20260902025433 15 225 3.2 3.2 0.00 0.00 0.00 75 1022.0
20260902024435 14 225 4.8 6.4 0.00 0.00 0.00 77 1022.0
20260902023534 14 247 3.2 4.8 0.00 0.00 0.00 77 1021.9
20260902022632 14 247 1.6 1.6 0.00 0.00 0.00 78 1021.8
20260902022533 14 247 1.6 3.2 0.00 0.00 0.00 78 1021.8
20260902021538 14 247 1.6 1.6 0.00 0.00 0.00 78 1021.8
20260902020534 15 90 0.0 1.6 0.00 0.00 0.00 77 1021.6
20260902015534 14 90 0.0 1.6 0.00 0.00 0.00 81 1021.8
20260902015433 14 90 0.0 0.0 0.00 0.00 0.00 82 1021.7
20260902014436 15 90 1.6 1.6 0.00 0.00 0.00 80 1021.5
20260902013433 15 90 0.0 0.0 0.00 0.00 0.00 78 1021.6
20260902013334 15 90 1.6 3.2 0.00 0.00 0.00 77 1021.6
20260902011432 16 90 0.0 0.0 0.00 0.00 0.00 72 1021.6
20260902011333 16 90 0.0 0.0 0.00 0.00 0.00 71 1021.6
20260902010335 16 90 0.0 1.6 0.00 0.00 0.00 68 1021.6
20260902005334 17 90 4.8 6.4 0.00 0.00 0.00 65 1021.5
20260902004335 17 180 4.8 8.0 0.00 0.00 0.00 65 1021.5
20260902003432 17 202 6.4 8.0 0.00 0.00 0.00 64 1021.4
20260902002434 17 180 3.2 6.4 0.00 0.00 0.00 65 1021.3
20260902001434 17 180 4.8 6.4 0.00 0.00 0.00 64 1021.5
20260902000337 17 172 4.8 6.4 0.00 0.00 0.00 64 1021.4
20260901235334 17 135 3.2 4.8 0.00 0.00 0.00 64 1021.5
20260901235234 17 149 3.2 4.8 0.00 0.00 0.00 64 1021.4
20260901234332 17 173 4.8 4.8 0.00 0.00 0.00 64 1021.4
20260901233335 17 180 3.2 6.4 0.00 0.00 0.00 63 1021.2
20260901233232 17 185 6.4 8.0 0.00 0.00 0.00 62 1021.2
20260901232233 17 180 0.0 1.6 0.00 0.00 0.00 62 1021.1
20260901230335 17 150 3.2 6.4 0.00 0.00 0.00 62 1020.9
20260901225334 18 171 8.0 11.3 0.00 0.00 0.00 61 1020.7
20260901224335 18 161 4.8 6.4 0.00 0.00 0.00 60 1020.8
20260901223335 18 112 3.2 4.8 0.00 0.00 0.00 58 1020.7
20260901221434 19 204 4.8 11.3 0.00 0.00 0.00 57 1020.5
20260901220532 20 180 6.4 9.7 0.00 0.00 0.00 55 1020.5
20260901215533 20 154 1.6 6.4 0.00 0.00 0.00 56 1020.3
20260901214536 20 167 6.4 9.7 0.00 0.00 0.00 55 1020.2
20260901214432 20 164 9.7 16.1 0.00 0.00 0.00 55 1020.2
20260901214336 20 181 4.8 9.7 0.00 0.00 0.00 56 1020.1
20260901213433 20 156 4.8 8.0 0.00 0.00 0.00 55 1020.2
20260901212432 20 212 3.2 6.4 0.00 0.00 0.00 53 1020.0
20260901211435 21 201 4.8 8.0 0.00 0.00 0.00 54 1020.0
20260901205550 20 151 8.0 14.5 0.00 0.00 0.00 53 1020.1
20260901203732 20 108 3.2 11.3 0.00 0.00 0.00 53 1019.9
20260901203633 20 138 11.3 20.9 0.00 0.00 0.00 52 1020.0
20260901203535 20 148 9.7 19.3 0.00 0.00 0.00 52 1020.0
20260901202632 21 163 8.0 14.5 0.00 0.00 0.00 52 1020.0
20260901200633 21 150 9.7 16.1 0.00 0.00 0.00 53 1020.2
20260901194634 20 125 14.5 20.9 0.00 0.00 0.00 54 1020.1
20260901193732 20 160 6.4 22.5 0.00 0.00 0.00 54 1020.0
20260901192733 20 130 8.0 16.1 0.00 0.00 0.00 55 1020.2
20260901191733 20 115 9.7 17.7 0.00 0.00 0.00 52 1020.2
20260901185833 20 119 12.9 20.9 0.00 0.00 0.00 53 1020.0
20260901184833 20 125 12.9 20.9 0.00 0.00 0.00 53 1019.9
20260901184735 20 129 11.3 17.7 0.00 0.00 0.00 53 1020.0
20260901183733 20 97 12.9 20.9 0.00 0.00 0.00 51 1019.9
20260901181733 20 126 9.7 14.5 0.00 0.00 0.00 52 1019.9
20260901175832 20 139 11.3 17.7 0.00 0.00 0.00 54 1020.1
20260901173835 19 143 11.3 17.7 0.00 0.00 0.00 59 1020.0
20260901172834 19 139 11.3 17.7 0.00 0.00 0.00 62 1020.1
20260901172736 19 110 11.3 16.1 0.00 0.00 0.00 62 1020.1
20260901171733 19 127 9.7 17.7 0.00 0.00 0.00 64 1020.1
20260901164834 19 114 9.7 16.1 0.00 0.00 0.00 63 1020.0
20260901162934 19 127 9.7 14.5 0.00 0.00 0.00 63 1020.0
20260901162033 19 153 6.4 9.7 0.00 0.00 0.00 63 1020.2
20260901161033 20 132 3.2 8.0 0.00 0.00 0.00 61 1020.1
20260901160036 20 147 4.8 12.9 0.00 0.00 0.00 61 1020.0
20260901155034 19 148 11.3 16.1 0.00 0.00 0.00 63 1020.1
20260901154034 18 132 11.3 14.5 0.00 0.00 0.00 66 1020.2
20260901153132 18 133 11.3 17.7 0.00 0.00 0.00 64 1020.1
20260901153037 19 132 3.2 8.0 0.00 0.00 0.00 63 1020.1
20260901152033 19 123 6.4 14.5 0.00 0.00 0.00 63 1020.2
20260901151032 18 98 3.2 6.4 0.00 0.00 0.00 65 1020.2
20260901150036 19 111 9.7 11.3 0.00 0.00 0.00 64 1020.1
20260901145034 19 135 4.8 11.3 0.00 0.00 0.00 63 1020.1
20260901144132 19 94 8.0 12.9 0.00 0.00 0.00 63 1020.2
20260901143134 20 93 6.4 11.3 0.00 0.00 0.00 61 1020.2
20260901142133 20 117 6.4 11.3 0.00 0.00 0.00 60 1020.2
20260901141133 20 102 4.8 8.0 0.00 0.00 0.00 60 1020.2
20260901141033 20 106 6.4 9.7 0.00 0.00 0.00 60 1020.1
20260901140037 20 112 3.2 8.0 0.00 0.00 0.00 60 1020.1
20260901135035 20 104 8.0 17.7 0.00 0.00 0.00 61 1019.9
20260901134033 19 95 3.2 6.4 0.00 0.00 0.00 63 1019.9
20260901133034 19 114 3.2 9.7 0.00 0.00 0.00 63 1020.0
20260901132033 19 85 3.2 6.4 0.00 0.00 0.00 63 1019.8
20260901131052 19 37 3.2 6.4 0.00 0.00 0.00 62 1019.8
20260901130035 19 130 0.0 3.2 0.00 0.00 0.00 63 1019.9
20260901124033 18 225 0.0 0.0 0.00 0.00 0.00 67 1019.8
20260901123132 18 225 0.0 1.6 0.00 0.00 0.00 67 1019.9
20260901122135 17 67 1.6 3.2 0.00 0.00 0.00 69 1020.0
20260901121233 16 135 0.0 0.0 0.00 0.00 0.00 68 1019.9
20260901120233 16 45 1.6 3.2 0.00 0.00 0.00 72 1019.9
20260901115234 16 45 0.0 1.6 0.00 0.00 0.00 74 1019.8
20260901113334 16 45 0.0 0.0 0.00 0.00 0.00 72 1019.8
20260901113234 16 45 0.0 3.2 0.00 0.00 0.00 71 1019.8
20260901112332 17 360 0.0 0.0 0.00 0.00 0.00 68 1019.5
20260901111333 17 360 0.0 0.0 0.00 0.00 0.00 68 1019.4
20260901111235 17 360 0.0 1.6 0.00 0.00 0.00 68 1019.4
20260901110332 16 360 4.8 4.8 0.00 0.00 0.00 70 1019.5
20260901105349 15 292 0.0 0.0 0.00 0.00 0.00 72 1019.4
20260901104433 15 292 1.6 1.6 0.00 0.00 0.00 72 1019.3
20260901104335 15 292 1.6 3.2 0.00 0.00 0.00 72 1019.3
20260901103433 15 270 1.6 1.6 0.00 0.00 0.00 74 1019.4
20260901102434 15 315 3.2 4.8 0.00 0.00 0.00 72 1019.2
20260901102335 15 315 4.8 4.8 0.00 0.00 0.00 72 1019.2
20260901100432 14 315 4.8 6.4 0.00 0.00 0.00 78 1019.3
20260901095433 14 292 1.6 1.6 0.00 0.00 0.00 78 1019.2
20260901094435 14 292 4.8 4.8 0.00 0.00 0.00 78 1019.1
20260901093434 13 315 4.8 4.8 0.00 0.00 0.00 81 1019.2
20260901092434 13 345 6.4 8.0 0.00 0.00 0.00 79 1019.4
20260901090532 15 322 6.4 8.0 0.00 0.00 0.00 73 1019.2
20260901085534 16 288 8.0 8.0 0.00 0.00 0.00 72 1019.1
20260901085433 16 270 8.0 9.7 0.00 0.00 0.00 72 1019.1
20260901084434 16 270 6.4 9.7 0.00 0.00 0.00 71 1019.2
20260901083435 16 270 6.4 8.0 0.00 0.00 0.00 70 1019.1
20260901082433 16 270 8.0 11.3 0.00 0.00 0.00 69 1019.0
20260901081435 16 270 12.9 17.7 0.00 0.00 0.00 68 1019.2
20260901080532 16 270 9.7 12.9 0.00 0.00 0.00 68 1019.3
20260901075533 16 270 9.7 14.5 0.00 0.00 0.00 67 1019.2
20260901074535 16 262 9.7 14.5 0.00 0.00 0.00 65 1019.1
20260901073534 17 265 12.9 17.7 0.00 0.00 0.00 66 1019.0
20260901072632 17 250 12.9 19.3 0.00 0.00 0.00 66 1018.9
20260901072533 17 259 12.9 19.3 0.00 0.00 0.00 66 1019.0
20260901070534 16 353 4.8 8.0 0.00 0.00 0.00 66 1019.2
20260901065533 16 259 9.7 14.5 0.00 0.00 0.00 66 1019.0
20260901064536 16 327 3.2 6.4 0.00 0.00 0.00 67 1019.2
20260901064432 16 301 3.2 6.4 0.00 0.00 0.00 67 1019.2
20260901062433 15 360 4.8 6.4 0.00 0.00 0.00 70 1019.2